Other Public Products
Issued by NWS Grand Forks, ND

Home | Current Version | Previous Version | Graphics & Text | Print | Product List | Glossary On
Versions: 1 2 3 4 5 6 7 8 9 10 11 12 13 14 15 16 17 18 19 20 21 22 23 24 25 26 27 28 29 30 31 32 33 34 35 36 37 38 39 40 41 42 43 44 45 46 47 48 49 50
000
FPUS83 KFGF 282310
OPUFGF
PRAIRIE TO PINES WEATHER ROUNDUP
NATIONAL WEATHER SERVICE EASTERN NORTH DAKOTA/GRAND FORKS ND
600 PM CDT TUE JUL 28 2015

 **SATELLITE DATA USED TO AUGMENT SKY COVER AT AUTOMATED STATIONS**
 *****  WEATHER ACROSS EASTERN NORTH DAKOTA  *****

CITY           SKY/WX    TMP DP  RH WIND       PRES   REMARKS
GRAND FORKS    PTSUNNY   76  54  46 SW18G33   29.62F
GRAND FORKS AF CLOUDY    75  55  49 SW22G36   29.63F
GRAND CITY NWS   N/A     75 N/A N/A SW26        N/A
BUXTON         NOT AVBL
DEVILS LAKE    PTSUNNY   72  52  49 SW29G45   29.58S
FARGO          MOSUNNY   79  52  38 SW23G33   29.73S
WAHPETON ARPT  CLEAR     79  46  31 W21G30    29.79S
$$

 *****  WEATHER ACROSS CENTRAL AND WESTERN NORTH DAKOTA  *****

CITY           SKY/WX    TMP DP  RH WIND       PRES   REMARKS
JAMESTOWN      MOSUNNY   71  50  47 W26G41    29.73R
BISMARCK       CLOUDY    70  47  43 W44G54    29.80R
MINOT          CLOUDY    64  50  60 SW33G54   29.49F
MINOT AFB      PTSUNNY   66  54  63 SW40G61   29.44F SQUALL
GARRISON         N/A     61  52  72 W29G44    29.66R
WILLISTON      LGT RAIN  59  52  77 W46G61    29.68R
DICKINSON      PTSUNNY   66  45  46 W46G61    29.85R
HETTINGER      MOSUNNY   71  42  35 W38G49    29.95R
$$

 *****  OTHER OBSERVATIONS NORTHEAST NORTH DAKOTA  *****

CITY           SKY/WX    TMP DP  RH WIND       PRES   REMARKS
WALHALLA       FAIR      73  57  56 MISG      29.51F
LANGDON        CLOUDY    70  55  60 SW24G32   29.54F
CAVALIER       MOCLDY    73  55  53 SW16G32   29.54S
GRAFTON        MOCLDY    73  55  53 SW17G30   29.59S
CANDO          NOT AVBL
FORT TOTTEN      N/A     69  51  51 SW17      29.95S
ROLLA          MOCLDY    63  54  72 SW40G51   29.45F
RUGBY          NOT AVBL
 ***** THE ABOVE OBSERVATIONS ARE NON NWS ARE NOT QUALITY
        CONTROLLED AND MAY MIS-REPORT RAIN FOR SNOW...
$$

 *****  OTHER OBSERVATIONS SOUTHEAST NORTH DAKOTA *****

CITY           SKY/WX    TMP DP  RH WIND       PRES   REMARKS
COOPERSTOWN    NOT AVBL
VALLEY CITY    NOT AVBL
OAKES            N/A     75  54  46 SW25G37   29.81R
GWINNER        FAIR      75  55  50 W17G26    29.80R
SHEYENNE NWR     N/A     78  52  39 W21       29.95S
BUFFALO        NOT AVBL
WYNDMERE         N/A     79  54  41 W16         N/A
 ***** THE ABOVE OBSERVATIONS ARE NON NWS ARE NOT QUALITY
       CONTROLLED AND MAY MIS-REPORT RAIN FOR SNOW...
$$

  *****  WEATHER ACROSS NORTHERN MINNESOTA  *****

CITY           SKY/WX    TMP DP  RH WIND       PRES   REMARKS
FLAG ISLAND    MOSUNNY   75  59  57 S23G36    29.58R
WARROAD        MOSUNNY   75  61  60 SW22G33   29.62S
ROSEAU         PTSUNNY   75  59  57 SW24G33   29.62R
HALLOCK        CLOUDY    73  55  53 S18G26    29.56F
THF RVR FALLS  PTSUNNY   73  54  49 SW20G28   29.67S
HALSTAD        NOT AVBL
FOSSTON        SUNNY     75  57  53 SW17G30   29.73S
BAUDETTE         N/A     76  59  55 SW21G28   29.64R
WASKISH        SUNNY     77  63  61 SW22G28   29.68S
CROOKSTON      CLOUDY    73  55  53 SW21G26   29.68S
$$
  *****  WEATHER ACROSS CENTRAL AND WEST MINNESOTA  *****

CITY           SKY/WX    TMP DP  RH WIND       PRES   REMARKS
BEMIDJI        MOSUNNY   76  56  49 SW17G29   29.73S
PARK RAPIDS    SUNNY     77  57  50 W21G28    29.77R
WADENA         SUNNY     75  57  53 SW21G26   29.79R
DETROIT LAKES  SUNNY     77  54  44 W17G30    29.78S
MOORHEAD       SUNNY     79  54  41 SW20G29   29.75S
FERGUS FALLS   MOSUNNY   79  55  44 W20G26    29.79R
ELBOW LAKE     FAIR      76  57  51 W21G28    29.82S
MORRIS MN      SUNNY     79  57  47 W23       29.82S
STAPLES        SUNNY     79  59  50 W12G20    29.79R
WHEATON        SUNNY     75  54  46 SW17G28   29.83S
$$
  *****  WEATHER ELSEWHERE ACROSS MINNESOTA  *****

CITY           SKY/WX    TMP DP  RH WIND       PRES   REMARKS
DULUTH         PTSUNNY   81  67  62 S14       29.78S
INTRNTL FALLS  MOSUNNY   80  65  59 SW14G23   29.64F
ELY            PTSUNNY   81  63  54 SW7       29.75S
CLOQUET        PTSUNNY   81  66  61 S9        29.78S
BRAINERD       PTSUNNY   80  65  59 SW15G24   29.77S
HIBBING        PTSUNNY   79  67  66 S10G17    29.74F
ALEXANDRIA     SUNNY     77  58  51 W18       29.84R
SAINT CLOUD    CLOUDY    81  71  71 SW8       29.80R
MINNEAPOLIS    CLOUDY    84  72  67 SW8       29.82R
$$

  *****  WEATHER ACROSS SOUTH DAKOTA  *****

CITY           SKY/WX    TMP DP  RH WIND       PRES   REMARKS
SIOUX FALLS    MOSUNNY   79  57  46 W14G20    29.93R
BROOKINGS      SUNNY     77  57  50 W17G25    29.92R
WATERTOWN      SUNNY     78  53  41 W22G30    29.88S
HURON          SUNNY     80  51  36 W15G28    29.90S
SISSETON         N/A     79  52  38 W18G36    29.81S
ABERDEEN       MOSUNNY   80  49  33 W23G37    29.86R
MITCHELL       SUNNY     81  52  36 W13       29.94R
PIERRE         MOSUNNY   82  43  25 W24G35    29.94R
MOBRIDGE       MOSUNNY   76  49  38 W31G41    29.88R
RAPID CITY     MOSUNNY   77  41  27 W20G29    30.06R
$$

  *****  SOME WEATHER IN NEARBY STATES *****

CITY           SKY/WX    TMP DP  RH WIND       PRES   REMARKS
GLASGOW MT     PTSUNNY   69  46  43 W26G37    29.89R
GREAT FALLS MT MOSUNNY   71  35  26 W13G21    30.11S
CHEYENNE WY    PTSUNNY   80  37  21 E9        30.20R
SCOTTSBLUFF NE SUNNY     83  27  13 CALM      30.10S
OMAHA NE       PTSUNNY   80  73  79 N18       29.89R
DES MOINES IA  TSTM      76  72  87 SE14      29.87R
DAVENPORT IA   CLOUDY    84  77  79 S5        29.90S HX  94
CHICAGO IL     PTSUNNY   88  69  53 S8        29.89R HX  92
EAU CLAIRE WI  MOSUNNY   86  71  60 S12       29.83S HX  91
LA CROSSE WI   MOSUNNY   85  73  67 S8        29.86S HX  91
$$

  *****  SOME NATIONAL WEATHER *****

CITY           SKY/WX    TMP DP  RH WIND       PRES   REMARKS
LA GUARDIA NY  MOSUNNY   88  64  44 S12       29.93S
RALEIGH NC     LGT RAIN  85  71  63 VRB3      29.96F HX  90
ATLANTA GA     PTSUNNY   89  70  53 NW13      29.96S HX  94
NEW ORLEANS LA MOSUNNY   91  70  49 CALM      29.95F HX  96
OKLAHOMA CITY  SUNNY     93  67  42 S17       29.92S HX  96
ALBUQUERQUE NM PTSUNNY   92  43  18 VRB3      30.07F
SALT LAKE CITY SUNNY     77  27  15 NW13      30.21F
LOS ANGELES CA SUNNY     74  63  68 W13       29.86F
BOISE ID       SUNNY     79  33  19 W10G16    30.19F
SEATTLE WA     MOSUNNY   81  48  31 N10G18    30.22F
$$

*** WEATHER ACROSS MANITOBA...SASKATCHEWAN AND ONTARIO ***
                ***ONTARIO***

CITY           SKY/WX    TMP DP  RH WIND       PRES   REMARKS
GERALDTON      CLOUDY    77  61  57 S13G23    29.85F
THUNDER BAY    PTSUNNY   73  64  73 E6        29.80F
SIOUX LOOKOUT  PTSUNNY   75  70  83 S12G20    29.63F
TORONTO        PTSUNNY   86  57  37 SE8       29.97F
BIG TROUT LK   SUNNY     84  59  42 SE7       29.58F
PICKLE LAKE    CLOUDY    79  64  61 S20G33    29.65F
DRYDEN         PTSUNNY   79  70  73 S20G36    29.61F
KENORA         MOSUNNY   77  63  61 SW25G37   29.58R
$$
                *** MANITOBA***

CITY           SKY/WX    TMP DP  RH WIND       PRES   REMARKS
BRANDON        PTSUNNY   64  55  72 S25G36    29.31F
DAUPHIN        LGT RAIN  66  59  77 S12G18    29.30F
ISLAND LAKE    PTSUNNY   73  68  83 SE12      29.42F
PILOT MOUND      N/A     66  54  63 SW24G33     N/A
THE PAS        LGT RAIN  63  59  88 NE12G24   29.42S
THOMPSON       LGT RAIN  63  59  88 NE17G26   29.53F
WINNIPEG       PTSUNNY   72  57  60 S22G33    29.47F
LYNN LAKE        N/A    N/A N/A N/A MISG        N/A
CHURCHILL      CLOUDY    61  57  88 E14       29.69F
GILLAM         LGT RAIN  70  61  73 NE13G24   29.55F
$$
                ***SASKATCHEWAN***

CITY           SKY/WX    TMP DP  RH WIND       PRES   REMARKS
ESTEVAN        LGT RAIN  63  59  88 W25G44    29.36R
KINDERSLEY     PTSUNNY   73  46  38 NW23G32   29.86S
LLOYDMINSTER   NOT AVBL
PRINCE ALBERT  LGT RAIN  61  59  94 CALM      29.68R
REGINA         LGT RAIN  57  55  94 NW39G54   29.55R FOG


USA.gov is the U.S. government's official web portal to all federal, state and local government web resources and services.